• In Portugal
  • List of Countries
  • For 7 days
  • Water Temperature
  • Satellite Maps
  • Weather Map
  • Weather Widgets
  • user-avatar
    Login

    Hourly Weather Slawomierz

    Today, 23 October, Tuesday

    Time Temperature Precipitation Wind Pressure Humidity
    00:00 +6°C° 0 mm 5 mps 761 mmHg 81%
    01:00 +4°C° 0 mm 6 mps 760 mmHg 82%
    02:00 +4°C° 0.2 mm 7 mps 759 mmHg 81%
    03:00 +4°C° 0.2 mm 7 mps 758 mmHg 81%
    04:00 +4°C° 0.2 mm 8 mps 757 mmHg 80%
    05:00 +3°C° 1.3 mm 9 mps 755 mmHg 81%
    06:00 +3°C° 1.3 mm 10 mps 754 mmHg 82%
    07:00 +5°C° 1.3 mm 10 mps 752 mmHg 83%
    08:00 +4°C° 2 mm 11 mps 751 mmHg 84%
    09:00 +6°C° 2 mm 11 mps 749 mmHg 86%
    10:00 +7°C° 2 mm 11 mps 748 mmHg 87%
    11:00 +8°C° 2.1 mm 11 mps 747 mmHg 86%
    12:00 +8°C° 2.1 mm 11 mps 746 mmHg 85%
    13:00 +9°C° 2.1 mm 11 mps 745 mmHg 85%
    14:00 +9°C° 0.8 mm 11 mps 744 mmHg 81%
    15:00 +9°C° 0.8 mm 11 mps 744 mmHg 78%
    16:00 +9°C° 0.8 mm 11 mps 744 mmHg 74%
    17:00 +9°C° 0.1 mm 11 mps 744 mmHg 74%
    18:00 +8°C° 0.1 mm 10 mps 744 mmHg 74%
    19:00 +8°C° 0.1 mm 10 mps 744 mmHg 73%
    20:00 +8°C° 0.2 mm 10 mps 744 mmHg 72%
    21:00 +8°C° 0.2 mm 10 mps 744 mmHg 70%
    22:00 +8°C° 0.2 mm 10 mps 744 mmHg 69%
    23:00 +7°C° 0.2 mm 10 mps 744 mmHg 66%

    Tomorrow, 24 October, Wednesday

    Time Temperature Precipitation Wind Pressure Humidity
    00:00 +7°C° 0.2 mm 10 mps 744 mmHg 64%
    01:00 +6°C° 0.2 mm 10 mps 744 mmHg 62%
    02:00 +6°C° 0.1 mm 10 mps 745 mmHg 61%
    03:00 +6°C° 0.1 mm 9 mps 745 mmHg 59%
    04:00 +5°C° 0.1 mm 9 mps 746 mmHg 58%
    05:00 +5°C° 0 mm 9 mps 747 mmHg 56%
    06:00 +3°C° 0 mm 9 mps 747 mmHg 55%
    07:00 +4°C° 0 mm 8 mps 748 mmHg 53%
    08:00 +5°C° 0 mm 9 mps 749 mmHg 51%
    09:00 +6°C° 0 mm 10 mps 750 mmHg 48%
    10:00 +6°C° 0 mm 10 mps 750 mmHg 46%
    11:00 +7°C° 0 mm 10 mps 751 mmHg 45%
    12:00 +7°C° 0 mm 10 mps 751 mmHg 45%
    13:00 +7°C° 0 mm 9 mps 752 mmHg 44%
    14:00 +7°C° 0 mm 9 mps 752 mmHg 46%
    15:00 +7°C° 0 mm 8 mps 753 mmHg 48%
    16:00 +6°C° 0 mm 7 mps 753 mmHg 51%
    17:00 +6°C° 0 mm 7 mps 753 mmHg 53%
    18:00 +5°C° 0 mm 6 mps 754 mmHg 56%
    19:00 +6°C° 0 mm 5 mps 754 mmHg 59%
    20:00 +6°C° 0 mm 5 mps 754 mmHg 62%
    21:00 +5°C° 0 mm 5 mps 754 mmHg 65%
    22:00 +5°C° 0 mm 4 mps 754 mmHg 68%
    23:00 +5°C° 0 mm 5 mps 753 mmHg 71%

    Day after tomorrow, 25 October, Thursday

    Time Temperature Precipitation Wind Pressure Humidity
    00:00 +5°C° 0 mm 5 mps 753 mmHg 74%
    01:00 +5°C° 0 mm 5 mps 752 mmHg 76%
    02:00 +5°C° 0.4 mm 5 mps 751 mmHg 81%
    03:00 +5°C° 0.4 mm 6 mps 750 mmHg 85%
    04:00 +5°C° 0.4 mm 6 mps 749 mmHg 90%
    05:00 +8°C° 0.7 mm 7 mps 749 mmHg 89%
    06:00 +9°C° 0.7 mm 8 mps 748 mmHg 87%
    07:00 +10°C° 0.7 mm 9 mps 747 mmHg 86%
    08:00 +9°C° 0.3 mm 10 mps 747 mmHg 83%
    09:00 +11°C° 0.3 mm 10 mps 747 mmHg 80%
    10:00 +11°C° 0.3 mm 10 mps 747 mmHg 77%
    11:00 +9°C° 0.1 mm 10 mps 747 mmHg 75%
    12:00 +9°C° 0.1 mm 10 mps 747 mmHg 72%
    13:00 +9°C° 0.1 mm 10 mps 747 mmHg 70%
    14:00 +8°C° 0.1 mm 10 mps 747 mmHg 70%
    15:00 +8°C° 0.1 mm 9 mps 748 mmHg 70%
    16:00 +8°C° 0.1 mm 9 mps 748 mmHg 70%
    17:00 +9°C° 0 mm 8 mps 748 mmHg 72%
    18:00 +7°C° 0 mm 8 mps 748 mmHg 74%
    19:00 +8°C° 0 mm 7 mps 749 mmHg 76%
    20:00 +8°C° 0 mm 7 mps 749 mmHg 76%
    21:00 +8°C° 0 mm 6 mps 749 mmHg 77%
    22:00 +8°C° 0 mm 6 mps 750 mmHg 78%
    23:00 +7°C° 0.1 mm 6 mps 750 mmHg 79%

    26 October, Friday

    Time Temperature Precipitation Wind Pressure Humidity
    00:00 +7°C° 0.1 mm 6 mps 750 mmHg 80%
    01:00 +7°C° 0.1 mm 5 mps 750 mmHg 81%
    02:00 +7°C° 0.1 mm 5 mps 750 mmHg 81%
    03:00 +7°C° 0.1 mm 5 mps 750 mmHg 81%
    04:00 +7°C° 0.1 mm 5 mps 750 mmHg 81%
    05:00 +7°C° 0.1 mm 5 mps 749 mmHg 82%
    06:00 +6°C° 0.1 mm 5 mps 749 mmHg 83%
    07:00 +6°C° 0.1 mm 5 mps 749 mmHg 84%
    08:00 +7°C° 0 mm 5 mps 749 mmHg 82%
    09:00 +7°C° 0 mm 5 mps 749 mmHg 80%
    10:00 +8°C° 0 mm 5 mps 749 mmHg 78%
    11:00 +8°C° 0.1 mm 5 mps 749 mmHg 79%
    12:00 +9°C° 0.1 mm 5 mps 748 mmHg 79%
    13:00 +9°C° 0.1 mm 5 mps 748 mmHg 80%
    14:00 +9°C° 0.5 mm 5 mps 747 mmHg 82%
    15:00 +9°C° 0.5 mm 6 mps 746 mmHg 84%
    16:00 +9°C° 0.5 mm 7 mps 746 mmHg 85%
    17:00 +9°C° 0.1 mm 7 mps 745 mmHg 84%
    18:00 +9°C° 0.1 mm 7 mps 745 mmHg 84%
    19:00 +9°C° 0.1 mm 7 mps 745 mmHg 83%
    20:00 +9°C° 0.1 mm 7 mps 744 mmHg 82%
    21:00 +8°C° 0.1 mm 7 mps 744 mmHg 82%
    22:00 +7°C° 0.1 mm 8 mps 744 mmHg 81%
    23:00 +7°C° 0.2 mm 8 mps 744 mmHg 81%

    27 October, Saturday

    Time Temperature Precipitation Wind Pressure Humidity
    00:00 +7°C° 0.2 mm 8 mps 743 mmHg 82%
    01:00 +7°C° 0.2 mm 8 mps 743 mmHg 82%
    02:00 +6°C° 0.2 mm 7 mps 743 mmHg 82%
    03:00 +6°C° 0.2 mm 7 mps 743 mmHg 83%
    04:00 +5°C° 0.2 mm 6 mps 743 mmHg 84%
    05:00 +5°C° 0.3 mm 7 mps 743 mmHg 82%
    06:00 +5°C° 0.3 mm 7 mps 744 mmHg 81%
    07:00 +5°C° 0.3 mm 7 mps 744 mmHg 79%
    08:00 +5°C° 0.1 mm 7 mps 745 mmHg 76%
    09:00 +5°C° 0.1 mm 7 mps 745 mmHg 73%
    10:00 +6°C° 0.1 mm 7 mps 746 mmHg 70%
    11:00 +6°C° 0.2 mm 7 mps 747 mmHg 69%
    12:00 +7°C° 0.2 mm 6 mps 747 mmHg 68%
    13:00 +7°C° 0.2 mm 6 mps 748 mmHg 67%
    14:00 +7°C° 0.2 mm 5 mps 748 mmHg 70%
    15:00 +6°C° 0.2 mm 4 mps 749 mmHg 73%
    16:00 +6°C° 0.2 mm 4 mps 749 mmHg 76%
    17:00 +5°C° 0.2 mm 4 mps 750 mmHg 79%
    18:00 +5°C° 0.2 mm 4 mps 750 mmHg 82%
    19:00 +5°C° 0.2 mm 3 mps 751 mmHg 85%
    20:00 +5°C° 0.4 mm 3 mps 751 mmHg 85%
    21:00 +5°C° 0.4 mm 3 mps 751 mmHg 85%
    22:00 +5°C° 0.4 mm 3 mps 752 mmHg 85%
    23:00 +4°C° 0.2 mm 3 mps 752 mmHg 85%

    28 October, Sunday

    Time Temperature Precipitation Wind Pressure Humidity
    00:00 +5°C° 0.2 mm 2 mps 752 mmHg 84%
    01:00 +5°C° 0.2 mm 2 mps 752 mmHg 84%
    02:00 +5°C° 0.1 mm 2 mps 752 mmHg 84%
    03:00 +5°C° 0.1 mm 2 mps 752 mmHg 84%
    04:00 +4°C° 0.1 mm 2 mps 753 mmHg 84%
    05:00 +4°C° 0.1 mm 2 mps 753 mmHg 84%
    06:00 +4°C° 0.1 mm 2 mps 753 mmHg 85%
    07:00 +4°C° 0.1 mm 2 mps 753 mmHg 85%
    08:00 +4°C° 0.1 mm 3 mps 753 mmHg 80%
    09:00 +5°C° 0.1 mm 3 mps 753 mmHg 75%
    10:00 +6°C° 0.1 mm 4 mps 754 mmHg 70%
    11:00 +6°C° 0.1 mm 4 mps 754 mmHg 69%
    12:00 +6°C° 0.1 mm 4 mps 754 mmHg 67%
    13:00 +7°C° 0.1 mm 4 mps 754 mmHg 65%
    14:00 +6°C° 0 mm 4 mps 754 mmHg 67%
    15:00 +6°C° 0 mm 4 mps 754 mmHg 68%
    16:00 +5°C° 0 mm 4 mps 754 mmHg 70%
    17:00 +5°C° 0 mm 4 mps 754 mmHg 71%
    18:00 +5°C° 0 mm 4 mps 754 mmHg 72%
    19:00 +4°C° 0 mm 4 mps 754 mmHg 73%
    20:00 +4°C° 0 mm 4 mps 754 mmHg 72%
    21:00 +3°C° 0 mm 5 mps 754 mmHg 71%
    22:00 +2°C° 0 mm 5 mps 754 mmHg 71%
    23:00 +2°C° 0 mm 5 mps 753 mmHg 71%

    29 October, Monday

    Time Temperature Precipitation Wind Pressure Humidity
    00:00 +2°C° 0 mm 5 mps 753 mmHg 72%
    01:00 +2°C° 0 mm 5 mps 753 mmHg 73%
    02:00 +2°C° 0 mm 5 mps 752 mmHg 72%
    03:00 +2°C° 0 mm 6 mps 752 mmHg 71%
    04:00 +2°C° 0 mm 6 mps 751 mmHg 71%
    05:00 +2°C° 0.1 mm 7 mps 751 mmHg 71%
    06:00 +1°C° 0.1 mm 8 mps 750 mmHg 71%
    07:00 +1°C° 0.1 mm 8 mps 750 mmHg 71%
    08:00 +1°C° 0.2 mm 9 mps 749 mmHg 72%
    09:00 +1°C° 0.2 mm 9 mps 749 mmHg 73%
    10:00 +1°C° 0.2 mm 10 mps 749 mmHg 74%
    11:00 +1°C° 0.4 mm 10 mps 748 mmHg 75%
    12:00 +1°C° 0.4 mm 10 mps 747 mmHg 76%
    13:00 +1°C° 0.4 mm 10 mps 747 mmHg 77%
    14:00 +1°C° 1.2 mm 9 mps 746 mmHg 80%
    15:00 +1°C° 1.2 mm 9 mps 746 mmHg 82%
    16:00 +1°C° 1.2 mm 8 mps 745 mmHg 84%
    17:00 +1°C° 0.5 mm 8 mps 744 mmHg 86%
    18:00 +1°C° 0.5 mm 8 mps 744 mmHg 87%
    19:00 +1°C° 0.5 mm 8 mps 743 mmHg 88%
    20:00 +2°C° 0.5 mm 7 mps 743 mmHg 89%
    21:00 +2°C° 0.5 mm 7 mps 742 mmHg 90%
    22:00 +2°C° 0.5 mm 6 mps 742 mmHg 91%
    23:00 +2°C° 0.5 mm 6 mps 741 mmHg 92%
    Show more